Вернуться в каталог

ARIANE 2 DEB

LostGTO
NORAD 27036·DEBRIS·🇫🇷 France

Запущен Jan 27, 1989 с Guiana Space Centre

Loading…

TLE

УстаревшееSource: Space-Track

Эпоха: May 6, 2025, 14:12 UTC

1 27036U 89006R   25126.59177800 -.00000215  00000-0  97618-3 0  9997
2 27036   9.1887   5.3472 7148138 217.1432  12.5034  2.25737870 16841

Отслеживайте ARIANE 2 DEB в реальном времени с AllMySat

Download on the App Store